Weather History for KGMU - October, 2011

Change the Weather History Date:

Saturday, October 8, 2011

  Actual Average Record
Temperature  
Mean Temperature 63 °F -  
Max Temperature 75 °F 71 °F 88 °F (2007)
Min Temperature 53 °F 53 °F 43 °F (2000)
Degree Days  
Heating Degree Days 2    
Growing Degree Days 13 (Base 50)    
Moisture  
Dew Point 48 °F    
Average Humidity 60    
Maximum Humidity 80    
Minimum Humidity 38    
Precipitation  
Precipitation 0.00 in - - ()
Sea Level Pressure  
Sea Level Pressure 30.42 in    
Wind  
Wind Speed 9 mph (NE)    
Max Wind Speed 13 mph    
Max Gust Speed 20 mph    
Visibility 10 miles    
Events      
Averages and records for this station are not official NWS values.
T = Trace of Precipitation, MM = Missing Value Source: NWS Daily Summary

Daily Weather History Graph

Daily Weather History Graph

Search for Another Location

Airport or City:

Trip Planner

Search our weather history database for the weather conditions in past years. The results will help you decide how hot, cold, wet, or windy it might be!

Date:

Astronomy

Oct. 08, 2011 Rise Set
Actual Time 7:29 AM EDT 7:04 PM EDT
Civil Twilight 7:04 AM EDT 7:29 PM EDT
Nautical Twilight 6:34 AM EDT 7:58 PM EDT
Astronomical Twilight 6:05 AM EDT 8:27 PM EDT
Moon 5:08 PM EDT (10/8) 4:21 AM EDT (10/8)
Length of Visible Light 12h 25m
Length of Day
11h 34m
Waxing Gibbous, 90% of the Moon is Illuminated
Oct 8
Waxing Gibbous
Oct 11
Full
Oct 19
Last Quarter
Oct 26
New
Nov 2
First Quarter

Hourly Weather History & Observations

Time (EDT) Temp. Dew Point Humidity Pressure Visibility Wind Dir Wind Speed Gust Speed Precip Events Conditions
12:53 AM 55.9 °F 48.9 °F 77% 30.42 in 10.0 mi NNE 6.9 mph - N/A   Clear
1:53 AM 55.0 °F 48.0 °F 77% 30.42 in 10.0 mi NNE 8.1 mph - N/A   Clear
2:53 AM 55.0 °F 48.0 °F 77% 30.42 in 10.0 mi NNE 9.2 mph - N/A   Clear
3:53 AM 55.9 °F 48.0 °F 75% 30.42 in 10.0 mi NNE 9.2 mph - N/A   Clear
4:53 AM 54.0 °F 46.9 °F 77% 30.43 in 10.0 mi NNE 8.1 mph - N/A   Mostly Cloudy
5:53 AM 53.1 °F 46.9 °F 80% 30.43 in 10.0 mi NNE 10.4 mph - N/A   Clear
6:53 AM 53.1 °F 46.9 °F 80% 30.44 in 10.0 mi NNE 10.4 mph - N/A   Clear
7:53 AM 54.0 °F 46.9 °F 77% 30.45 in 10.0 mi NNE 11.5 mph - N/A   Clear
9:53 AM 63.0 °F 48.0 °F 58% 30.48 in 10.0 mi ENE 12.7 mph - N/A   Clear
10:53 AM 64.9 °F 50.0 °F 58% 30.48 in 10.0 mi NE 11.5 mph 19.6 mph N/A   Clear
11:53 AM 70.0 °F 51.1 °F 51% 30.48 in 10.0 mi ENE 10.4 mph - N/A   Clear
12:53 PM 70.0 °F 48.9 °F 47% 30.45 in 10.0 mi ENE 11.5 mph - N/A   Clear
2:53 PM 73.0 °F 48.0 °F 41% 30.40 in 10.0 mi NE 12.7 mph - N/A   Clear
3:53 PM 73.9 °F 46.9 °F 38% 30.38 in 10.0 mi NE 10.4 mph 17.3 mph N/A   Clear
4:53 PM 73.0 °F 46.0 °F 38% 30.36 in 10.0 mi NE 9.2 mph - N/A   Clear
5:53 PM 72.0 °F 46.9 °F 41% 30.36 in 10.0 mi ENE 8.1 mph - N/A   Clear
7:53 PM 66.0 °F 46.0 °F 48% 30.39 in 10.0 mi ENE 6.9 mph - N/A   Clear
8:53 PM 64.9 °F 46.0 °F 50% 30.40 in 10.0 mi ENE 8.1 mph - N/A   Clear
10:53 PM 62.1 °F 48.0 °F 60% 30.40 in 10.0 mi NE 6.9 mph - N/A   Clear
11:53 PM 62.1 °F 46.9 °F 58% 30.39 in 10.0 mi NE 8.1 mph - N/A   Clear